Corpus Christi, TX

8:10 PM CST on February 21, 2017 (GMT -0600)
Corpus Christi International

Weather History for KCRP - May, 2014

Change the Weather History Date:

Monday, May 5, 2014

  Actual Average Record
Temperature  
Mean Temperature 76 °F 76 °F  
Max Temperature 90 °F 85 °F 96 °F (2003)
Min Temperature 62 °F 68 °F 50 °F (1970)
Degree Days  
Heating Degree Days 0 0  
Month to date heating degree days 0 0  
Since 1 July heating degree days 1145 898  
Cooling Degree Days 11 11  
Month to date cooling degree days 35 55  
Year to date cooling degree days 481 483  
Growing Degree Days 26 (Base 50)    
Moisture  
Dew Point 60 °F    
Average Humidity 62    
Maximum Humidity 84    
Minimum Humidity 40    
Precipitation  
Precipitation 0.00 in 0.09 in 6.57 in (1926)
Month to date precipitation 0.08 0.42  
Year to date precipitation 3.14 7.62  
Snow  
Snow 0.00 in - - ()
Month to date snowfall 0.0  
Since 1 July snowfall T  
Snow Depth 0.00 in    
Sea Level Pressure  
Sea Level Pressure 29.96 in    
Wind  
Wind Speed 15 mph (SSE)    
Max Wind Speed 26 mph    
Max Gust Speed 31 mph    
Visibility 10 miles    
Events      
T = Trace of Precipitation, MM = Missing Value Source: NWS Daily Summary

Daily Weather History Graph

Daily Weather History Graph

Search for Another Location

Airport or City:

Trip Planner

Search our weather history database for the weather conditions in past years. The results will help you decide how hot, cold, wet, or windy it might be!

Date:

Astronomy

May. 05, 2014 Rise Set
Actual Time 6:47 AM CDT 8:06 PM CDT
Civil Twilight 6:22 AM CDT 8:31 PM CDT
Nautical Twilight 5:52 AM CDT 9:01 PM CDT
Astronomical Twilight 5:21 AM CDT 9:31 PM CDT
Moon 12:06 PM CDT (5/5) 12:52 AM CDT (5/5)
Length of Visible Light 14h 09m
Length of Day
13h 19m
Waxing Crescent, 37% of the Moon is Illuminated
May 5
Waxing Crescent
May 6
First Quarter
May 14
Full
May 21
Last Quarter
May 28
New

Hourly Weather History & Observations

Time (CDT) Temp. Heat Index Dew Point Humidity Pressure Visibility Wind Dir Wind Speed Gust Speed Precip Events Conditions
12:51 AM 69.1 °F - 60.1 °F 73% 30.04 in 10.0 mi SSE 9.2 mph - N/A   Partly Cloudy
1:51 AM 66.0 °F - 59.0 °F 78% 30.04 in 10.0 mi SSE 8.1 mph - N/A   Partly Cloudy
2:51 AM 66.0 °F - 57.9 °F 75% 30.01 in 10.0 mi SSE 9.2 mph - N/A   Partly Cloudy
3:51 AM 64.4 °F - 57.2 °F 77% 30.00 in 10.0 mi SSE 6.9 mph - N/A   Partly Cloudy
4:51 AM 63.0 °F - 57.0 °F 81% 29.99 in 10.0 mi SE 6.9 mph - N/A   Partly Cloudy
5:51 AM 63.0 °F - 57.0 °F 81% 29.99 in 10.0 mi SE 9.2 mph - N/A   Partly Cloudy
6:51 AM 64.4 °F - 57.2 °F 77% 30.00 in 10.0 mi SSE 6.9 mph - N/A   Partly Cloudy
7:51 AM 68.0 °F - 61.0 °F 78% 30.01 in 10.0 mi SSE 8.1 mph - N/A   Partly Cloudy
8:51 AM 75.0 °F - 62.1 °F 64% 30.01 in 10.0 mi SSE 16.1 mph 23.0 mph N/A   Partly Cloudy
9:51 AM 79.0 °F - 60.1 °F 52% 30.01 in 10.0 mi South 18.4 mph - N/A   Partly Cloudy
10:51 AM 82.0 °F 82.4 °F 60.1 °F 47% 30.01 in 10.0 mi South 19.6 mph 25.3 mph N/A   Partly Cloudy
11:51 AM 84.0 °F 84.0 °F 60.1 °F 44% 30.00 in 10.0 mi SSE 20.7 mph 27.6 mph N/A   Partly Cloudy
12:51 PM 84.9 °F 85.0 °F 61.0 °F 44% 29.98 in 10.0 mi SSE 20.7 mph 26.5 mph N/A   Partly Cloudy
1:51 PM 86.0 °F 86.1 °F 61.0 °F 43% 29.96 in 10.0 mi SE 17.3 mph - N/A   Partly Cloudy
2:51 PM 87.1 °F 87.0 °F 61.0 °F 41% 29.93 in 10.0 mi SE 20.7 mph 26.5 mph N/A   Partly Cloudy
3:51 PM 84.9 °F 85.0 °F 61.0 °F 44% 29.90 in 10.0 mi SSE 21.9 mph 28.8 mph N/A   Partly Cloudy
4:51 PM 84.0 °F 84.0 °F 60.1 °F 44% 29.88 in 10.0 mi SSE 20.7 mph - N/A   Clear
5:51 PM 81.0 °F 81.6 °F 60.1 °F 49% 29.88 in 10.0 mi SSE 23.0 mph - N/A   Clear
6:51 PM 79.0 °F - 60.1 °F 52% 29.88 in 10.0 mi SSE 23.0 mph - N/A   Clear
7:51 PM 75.0 °F - 61.0 °F 62% 29.87 in 10.0 mi SSE 19.6 mph - N/A   Clear
8:51 PM 72.0 °F - 62.1 °F 71% 29.88 in 10.0 mi SSE 16.1 mph - N/A   Clear
9:51 PM 71.1 °F - 63.0 °F 75% 29.89 in 10.0 mi SSE 18.4 mph - N/A   Clear
10:51 PM 71.1 °F - 64.0 °F 78% 29.91 in 10.0 mi SSE 15.0 mph - N/A   Clear
11:51 PM 70.0 °F - 64.0 °F 81% 29.91 in 10.0 mi SSE 12.7 mph - N/A   Clear